Station Historical Data
Daily Summary for July 7, 2017 Units:  English    Metric   Both
« Previous Day
Next Day »
Daily Weekly Monthly Yearly Custom
  High: Low: Average:
Temperature: 79.4 °F 67.4 °F 73.3 °F
Dew Point: 70.0 °F 60.6 °F 65.8 °F
Humidity: 87% 63% 78%
Wind Speed: 10.0mph 0.0mph 4mph
Wind Gust: 20.0mph - -
Wind- - SW
Pressure: 29.86 in 29.70 in -
Precipitation: 0.00 in    
Historical Graphs
 
 
Tabular Data for July 7, 2017
Time Temperature Dew Point Pressure Wind Wind Speed Wind Gust Humidity Rainfall Rate (Hourly)
00:04 74.0 °F 60.6 °F 29.86 in Calm   3.0 mph 63% 0.00 in
00:09 73.8 °F 60.9 °F 29.86 in Calm   3.0 mph 64% 0.00 in
00:14 73.9 °F 61.0 °F 29.86 in SW 2.0 mph 5.0 mph 64% 0.00 in
00:19 74.2 °F 61.2 °F 29.86 in SW 1.0 mph 6.0 mph 64% 0.00 in
00:24 74.2 °F 61.2 °F 29.85 in SSW 3.0 mph 5.0 mph 64% 0.00 in
00:29 74.1 °F 61.1 °F 29.85 in SSW 3.0 mph 8.0 mph 64% 0.00 in
00:34 73.9 °F 61.4 °F 29.84 in SSW 2.0 mph 8.0 mph 65% 0.00 in
00:39 73.7 °F 61.2 °F 29.85 in SSW 2.0 mph 5.0 mph 65% 0.00 in
00:44 73.3 °F 61.3 °F 29.84 in SSW 1.0 mph 5.0 mph 66% 0.00 in
00:49 73.2 °F 61.6 °F 29.84 in SW 1.0 mph 4.0 mph 67% 0.00 in
00:54 73.2 °F 62.0 °F 29.85 in WSW 1.0 mph 6.0 mph 68% 0.00 in
00:59 73.3 °F 62.1 °F 29.84 in SW 1.0 mph 5.0 mph 68% 0.00 in
01:04 73.2 °F 62.4 °F 29.84 in WSW 1.0 mph 5.0 mph 69% 0.00 in
01:09 73.1 °F 63.1 °F 29.84 in SW 1.0 mph 4.0 mph 71% 0.00 in
01:14 72.9 °F 63.7 °F 29.84 in SW 2.0 mph 5.0 mph 73% 0.00 in
01:19 72.9 °F 64.1 °F 29.84 in SW 4.0 mph 5.0 mph 74% 0.00 in
01:24 72.9 °F 64.5 °F 29.84 in Calm   5.0 mph 75% 0.00 in
01:29 72.8 °F 64.8 °F 29.84 in SW 2.0 mph 6.0 mph 76% 0.00 in
01:34 72.7 °F 64.7 °F 29.84 in SW 3.0 mph 6.0 mph 76% 0.00 in
01:39 72.6 °F 65.0 °F 29.84 in SW 1.0 mph 5.0 mph 77% 0.00 in
01:44 72.4 °F 64.8 °F 29.84 in SW 1.0 mph 5.0 mph 77% 0.00 in
01:49 72.3 °F 64.7 °F 29.84 in SW 2.0 mph 5.0 mph 77% 0.00 in
01:54 72.1 °F 64.9 °F 29.84 in SW 3.0 mph 5.0 mph 78% 0.00 in
01:59 72.2 °F 65.3 °F 29.84 in SW 3.0 mph 7.0 mph 79% 0.00 in
02:04 72.1 °F 65.2 °F 29.84 in SW 3.0 mph 7.0 mph 79% 0.00 in
02:09 72.2 °F 65.3 °F 29.84 in SW 3.0 mph 7.0 mph 79% 0.00 in
02:14 72.2 °F 65.3 °F 29.84 in SW 3.0 mph 7.0 mph 79% 0.00 in
02:19 72.1 °F 65.6 °F 29.84 in West 2.0 mph 7.0 mph 80% 0.00 in
02:24 71.9 °F 65.4 °F 29.84 in SW 4.0 mph 6.0 mph 80% 0.00 in
02:29 71.8 °F 65.3 °F 29.84 in SW 3.0 mph 7.0 mph 80% 0.00 in
02:34 71.6 °F 65.5 °F 29.84 in SW 3.0 mph 7.0 mph 81% 0.00 in
02:39 71.4 °F 65.3 °F 29.84 in WSW 4.0 mph 5.0 mph 81% 0.00 in
02:45 71.4 °F 65.3 °F 29.83 in SW 4.0 mph 5.0 mph 81% 0.00 in
02:54 71.2 °F 65.1 °F 29.83 in SW 2.0 mph 5.0 mph 81% 0.00 in
02:59 71.0 °F 64.9 °F 29.82 in SW 2.0 mph 8.0 mph 81% 0.00 in
03:04 71.0 °F 64.9 °F 29.83 in SW 3.0 mph 9.0 mph 81% 0.00 in
03:09 70.9 °F 65.1 °F 29.83 in WSW 4.0 mph 8.0 mph 82% 0.00 in
03:14 70.9 °F 65.1 °F 29.82 in SW 3.0 mph 8.0 mph 82% 0.00 in
03:19 70.8 °F 65.0 °F 29.82 in SW 1.0 mph 7.0 mph 82% 0.00 in
03:24 70.8 °F 65.0 °F 29.82 in SW 3.0 mph 7.0 mph 82% 0.00 in
03:29 70.7 °F 64.9 °F 29.82 in SW 3.0 mph 6.0 mph 82% 0.00 in
03:34 70.7 °F 64.9 °F 29.82 in SW 3.0 mph 8.0 mph 82% 0.00 in
03:39 70.5 °F 64.7 °F 29.82 in SW 4.0 mph 8.0 mph 82% 0.00 in
03:44 70.4 °F 64.6 °F 29.81 in SW 4.0 mph 7.0 mph 82% 0.00 in
03:49 70.4 °F 64.6 °F 29.81 in SSW 2.0 mph 8.0 mph 82% 0.00 in
03:54 70.3 °F 64.5 °F 29.81 in SW 4.0 mph 8.0 mph 82% 0.00 in
03:59 70.1 °F 64.3 °F 29.81 in SSW 1.0 mph 8.0 mph 82% 0.00 in
04:04 70.1 °F 64.3 °F 29.80 in SW 1.0 mph 5.0 mph 82% 0.00 in
04:09 70.0 °F 64.2 °F 29.80 in SW 4.0 mph 6.0 mph 82% 0.00 in
04:14 69.9 °F 64.2 °F 29.80 in SW 4.0 mph 7.0 mph 82% 0.00 in
04:19 69.9 °F 64.2 °F 29.79 in South 2.0 mph 6.0 mph 82% 0.00 in
04:24 69.8 °F 64.1 °F 29.79 in SSW 3.0 mph 7.0 mph 82% 0.00 in
04:29 69.7 °F 64.0 °F 29.79 in SSW 3.0 mph 7.0 mph 82% 0.00 in
04:34 69.6 °F 63.5 °F 29.79 in SSW 2.0 mph 6.0 mph 81% 0.00 in
04:39 69.5 °F 63.8 °F 29.79 in SSW 2.0 mph 7.0 mph 82% 0.00 in
04:44 69.5 °F 63.4 °F 29.78 in SW 3.0 mph 5.0 mph 81% 0.00 in
04:49 69.4 °F 63.3 °F 29.78 in SW 2.0 mph 7.0 mph 81% 0.00 in
04:54 69.3 °F 63.2 °F 29.78 in SW 2.0 mph 7.0 mph 81% 0.00 in
04:59 69.1 °F 63.0 °F 29.78 in SW 2.0 mph 7.0 mph 81% 0.00 in
05:04 69.0 °F 63.3 °F 29.78 in SW 2.0 mph 7.0 mph 82% 0.00 in
05:09 69.0 °F 63.3 °F 29.77 in SW 2.0 mph 5.0 mph 82% 0.00 in
05:14 68.9 °F 63.2 °F 29.77 in Calm   5.0 mph 82% 0.00 in
05:19 68.7 °F 63.0 °F 29.77 in SSW 1.0 mph 5.0 mph 82% 0.00 in
05:24 68.5 °F 62.8 °F 29.76 in Calm   3.0 mph 82% 0.00 in
05:29 68.2 °F 62.8 °F 29.76 in Calm   4.0 mph 83% 0.00 in
05:34 68.1 °F 62.7 °F 29.76 in South 4.0 mph 4.0 mph 83% 0.00 in
05:39 68.0 °F 62.6 °F 29.76 in SSW 1.0 mph 4.0 mph 83% 0.00 in
05:44 67.9 °F 62.5 °F 29.77 in SSW 2.0 mph 4.0 mph 83% 0.00 in
05:49 67.7 °F 62.3 °F 29.78 in SSW 1.0 mph 4.0 mph 83% 0.00 in
05:54 67.7 °F 62.3 °F 29.78 in SSW 1.0 mph 3.0 mph 83% 0.00 in
05:59 67.5 °F 62.5 °F 29.79 in Calm     84% 0.00 in
06:04 67.4 °F 62.4 °F 29.79 in Calm     84% 0.00 in
06:09 67.4 °F 62.4 °F 29.78 in Calm     84% 0.00 in
06:14 67.6 °F 62.9 °F 29.79 in Calm   3.0 mph 85% 0.00 in
06:19 67.8 °F 63.1 °F 29.79 in Calm   3.0 mph 85% 0.00 in
06:24 68.3 °F 63.3 °F 29.79 in SW 1.0 mph 4.0 mph 84% 0.00 in
06:29 68.4 °F 63.4 °F 29.79 in SW 1.0 mph 4.0 mph 84% 0.00 in
06:34 68.8 °F 63.4 °F 29.79 in SW 3.0 mph 6.0 mph 83% 0.00 in
06:39 69.2 °F 63.8 °F 29.78 in Calm   5.0 mph 83% 0.00 in
06:44 69.4 °F 64.0 °F 29.79 in SW 1.0 mph 5.0 mph 83% 0.00 in
06:49 69.7 °F 64.0 °F 29.79 in SW 2.0 mph 7.0 mph 82% 0.00 in
06:54 70.0 °F 64.2 °F 29.79 in SW 2.0 mph 7.0 mph 82% 0.00 in
06:59 70.3 °F 64.2 °F 29.79 in SW 3.0 mph 6.0 mph 81% 0.00 in
07:04 70.6 °F 64.5 °F 29.79 in SW 3.0 mph 8.0 mph 81% 0.00 in
07:09 70.9 °F 64.4 °F 29.79 in SW 3.0 mph 9.0 mph 80% 0.00 in
07:14 71.2 °F 64.7 °F 29.79 in SW 3.0 mph 9.0 mph 80% 0.00 in
07:19 71.4 °F 64.5 °F 29.79 in SSW 7.0 mph 8.0 mph 79% 0.00 in
07:24 71.5 °F 64.6 °F 29.79 in West 4.0 mph 7.0 mph 79% 0.00 in
07:29 71.9 °F 64.7 °F 29.79 in SSW 4.0 mph 9.0 mph 78% 0.00 in
07:34 72.2 °F 65.0 °F 29.79 in SW 4.0 mph 10.0 mph 78% 0.00 in
07:39 72.1 °F 64.5 °F 29.79 in SW 3.0 mph 10.0 mph 77% 0.00 in
07:44 72.4 °F 64.8 °F 29.79 in SW 4.0 mph 10.0 mph 77% 0.00 in
07:49 73.0 °F 65.0 °F 29.79 in SW 3.0 mph 8.0 mph 76% 0.00 in
07:54 73.2 °F 65.2 °F 29.79 in WSW 4.0 mph 8.0 mph 76% 0.00 in
07:59 73.4 °F 65.4 °F 29.79 in West 2.0 mph 9.0 mph 76% 0.00 in
08:04 73.3 °F 64.9 °F 29.78 in West 3.0 mph 10.0 mph 75% 0.00 in
08:09 73.2 °F 65.2 °F 29.79 in WSW 4.0 mph 10.0 mph 76% 0.00 in
08:14 73.7 °F 65.7 °F 29.79 in WSW 4.0 mph 9.0 mph 76% 0.00 in
08:19 73.7 °F 65.7 °F 29.79 in WSW 4.0 mph 9.0 mph 76% 0.00 in
08:24 73.7 °F 65.7 °F 29.80 in WSW 4.0 mph 9.0 mph 76% 0.00 in
08:29 73.4 °F 65.0 °F 29.80 in WSW 4.0 mph 9.0 mph 75% 0.00 in
08:34 73.5 °F 65.5 °F 29.79 in SW 5.0 mph 9.0 mph 76% 0.00 in
08:39 73.7 °F 65.3 °F 29.79 in WSW 5.0 mph 10.0 mph 75% 0.00 in
08:44 73.7 °F 65.3 °F 29.80 in WSW 5.0 mph 10.0 mph 75% 0.00 in
08:49 73.6 °F 65.6 °F 29.80 in SW 4.0 mph 10.0 mph 76% 0.00 in
08:54 73.6 °F 65.6 °F 29.80 in SW 3.0 mph 7.0 mph 76% 0.00 in
08:59 73.1 °F 65.1 °F 29.79 in WSW 6.0 mph 8.0 mph 76% 0.00 in
09:04 72.9 °F 65.3 °F 29.80 in WSW 4.0 mph 6.0 mph 77% 0.00 in
09:09 72.7 °F 65.1 °F 29.80 in WSW 5.0 mph 9.0 mph 77% 0.00 in
09:14 72.3 °F 65.1 °F 29.80 in SW 5.0 mph 9.0 mph 78% 0.00 in
09:19 72.1 °F 65.2 °F 29.80 in SW 5.0 mph 9.0 mph 79% 0.00 in
09:24 72.0 °F 65.5 °F 29.79 in WSW 4.0 mph 9.0 mph 80% 0.00 in
09:29 71.7 °F 65.9 °F 29.80 in SW 7.0 mph 8.0 mph 82% 0.00 in
09:34 71.2 °F 65.8 °F 29.80 in SW 6.0 mph 7.0 mph 83% 0.01 in
09:39 70.8 °F 65.7 °F 29.79 in SW 2.0 mph 6.0 mph 84% 0.01 in
09:44 70.6 °F 65.9 °F 29.79 in WSW 3.0 mph 6.0 mph 85% 0.01 in
09:49 70.6 °F 66.2 °F 29.79 in SSW 5.0 mph 7.0 mph 86% 0.01 in
09:54 70.5 °F 66.1 °F 29.79 in SW 5.0 mph 6.0 mph 86% 0.01 in
09:59 70.4 °F 66.3 °F 29.79 in SW 5.0 mph 7.0 mph 87% 0.01 in
10:04 70.4 °F 66.3 °F 29.79 in WSW 4.0 mph 9.0 mph 87% 0.01 in
10:09 70.0 °F 66.0 °F 29.78 in SW 4.0 mph 9.0 mph 87% 0.01 in
10:14 69.9 °F 65.9 °F 29.78 in SW 3.0 mph 7.0 mph 87% 0.01 in
10:19 70.1 °F 65.7 °F 29.78 in SW 3.0 mph 7.0 mph 86% 0.01 in
10:24 70.3 °F 65.6 °F 29.78 in SW 3.0 mph 6.0 mph 85% 0.01 in
10:29 71.2 °F 66.5 °F 29.78 in SW 3.0 mph 6.0 mph 85% 0.01 in
10:34 71.6 °F 66.2 °F 29.78 in SW 3.0 mph 6.0 mph 83% 0.00 in
10:39 71.9 °F 65.8 °F 29.78 in SSW 3.0 mph 7.0 mph 81% 0.00 in
10:44 72.1 °F 64.5 °F 29.78 in SSW 3.0 mph 7.0 mph 77% 0.00 in
10:49 73.2 °F 64.8 °F 29.77 in SSW 6.0 mph 8.0 mph 75% 0.00 in
10:54 73.2 °F 64.4 °F 29.77 in SSW 5.0 mph 9.0 mph 74% 0.00 in
10:59 74.1 °F 65.3 °F 29.77 in South 5.0 mph 7.0 mph 74% 0.00 in
11:04 74.1 °F 64.9 °F 29.77 in South 6.0 mph 8.0 mph 73% 0.00 in
11:09 73.4 °F 65.0 °F 29.77 in SSW 4.0 mph 8.0 mph 75% 0.00 in
11:14 73.2 °F 65.2 °F 29.77 in SSW 4.0 mph 7.0 mph 76% 0.00 in
11:19 73.7 °F 65.7 °F 29.77 in South 4.0 mph 11.0 mph 76% 0.00 in
11:24 73.6 °F 65.2 °F 29.77 in South 5.0 mph 11.0 mph 75% 0.00 in
11:29 74.2 °F 66.1 °F 29.77 in South 3.0 mph 7.0 mph 76% 0.00 in
11:34 74.6 °F 65.8 °F 29.77 in SW 4.0 mph 9.0 mph 74% 0.00 in
11:39 75.0 °F 66.1 °F 29.76 in South 4.0 mph 9.0 mph 74% 0.00 in
11:44 75.6 °F 66.3 °F 29.77 in South 3.0 mph 8.0 mph 73% 0.00 in
11:49 75.3 °F 66.4 °F 29.77 in SSW 3.0 mph 8.0 mph 74% 0.00 in
11:54 74.9 °F 66.1 °F 29.77 in SW 4.0 mph 9.0 mph 74% 0.00 in
11:59 74.5 °F 66.1 °F 29.77 in SSE 3.0 mph 9.0 mph 75% 0.00 in
12:04 74.3 °F 66.2 °F 29.77 in SSW 5.0 mph 7.0 mph 76% 0.00 in
12:09 74.3 °F 66.2 °F 29.76 in SSW 4.0 mph 8.0 mph 76% 0.00 in
12:14 75.0 °F 66.9 °F 29.76 in SW 4.0 mph 7.0 mph 76% 0.00 in
12:19 75.1 °F 67.0 °F 29.76 in WSW 5.0 mph 7.0 mph 76% 0.00 in
12:24 75.3 °F 67.2 °F 29.76 in South 3.0 mph 8.0 mph 76% 0.00 in
12:29 75.8 °F 67.7 °F 29.76 in SW 4.0 mph 6.0 mph 76% 0.00 in
12:34 75.6 °F 67.9 °F 29.76 in SSW 4.0 mph 8.0 mph 77% 0.00 in
12:39 75.1 °F 67.4 °F 29.76 in SW 4.0 mph 8.0 mph 77% 0.00 in
12:44 75.5 °F 68.2 °F 29.76 in SW 3.0 mph 7.0 mph 78% 0.00 in
12:49 76.1 °F 68.7 °F 29.76 in SW 4.0 mph 8.0 mph 78% 0.00 in
12:54 76.5 °F 68.4 °F 29.76 in SW 4.0 mph 9.0 mph 76% 0.00 in
12:59 76.0 °F 67.9 °F 29.76 in WSW 5.0 mph 9.0 mph 76% 0.00 in
13:04 76.6 °F 68.8 °F 29.76 in West 5.0 mph 11.0 mph 77% 0.00 in
13:09 77.6 °F 69.4 °F 29.76 in SW 6.0 mph 9.0 mph 76% 0.00 in
13:14 76.9 °F 68.4 °F 29.76 in SW 2.0 mph 9.0 mph 75% 0.00 in
13:19 76.4 °F 68.3 °F 29.76 in SW 1.0 mph 9.0 mph 76% 0.00 in
13:24 76.7 °F 68.6 °F 29.76 in SW 2.0 mph 7.0 mph 76% 0.00 in
13:29 76.7 °F 68.2 °F 29.75 in SSW 5.0 mph 8.0 mph 75% 0.00 in
13:34 76.6 °F 68.1 °F 29.75 in WSW 5.0 mph 9.0 mph 75% 0.00 in
13:39 77.0 °F 68.9 °F 29.75 in WSW 5.0 mph 9.0 mph 76% 0.00 in
13:44 77.5 °F 68.9 °F 29.75 in SW 5.0 mph 11.0 mph 75% 0.00 in
13:49 77.5 °F 69.3 °F 29.75 in SW 6.0 mph 11.0 mph 76% 0.00 in
13:54 77.9 °F 68.9 °F 29.75 in SW 5.0 mph 10.0 mph 74% 0.00 in
13:59 77.3 °F 68.4 °F 29.75 in West 2.0 mph 8.0 mph 74% 0.00 in
14:04 77.4 °F 68.9 °F 29.75 in South 5.0 mph 10.0 mph 75% 0.00 in
14:09 77.0 °F 68.9 °F 29.75 in SW 5.0 mph 10.0 mph 76% 0.00 in
14:14 77.0 °F 68.9 °F 29.75 in SW 5.0 mph 12.0 mph 76% 0.00 in
14:19 78.6 °F 70.0 °F 29.75 in WSW 5.0 mph 9.0 mph 75% 0.00 in
14:24 79.0 °F 69.2 °F 29.75 in SSW 5.0 mph 12.0 mph 72% 0.00 in
14:29 77.9 °F 68.5 °F 29.75 in West 4.0 mph 12.0 mph 73% 0.00 in
14:34 78.8 °F 69.8 °F 29.75 in WSW 6.0 mph 12.0 mph 74% 0.00 in
14:39 78.7 °F 68.9 °F 29.76 in West 9.0 mph 14.0 mph 72% 0.00 in
14:44 78.9 °F 69.5 °F 29.75 in SW 7.0 mph 14.0 mph 73% 0.00 in
14:49 78.4 °F 69.0 °F 29.75 in SW 6.0 mph 14.0 mph 73% 0.00 in
14:54 78.5 °F 68.7 °F 29.75 in SW 6.0 mph 11.0 mph 72% 0.00 in
14:59 78.0 °F 68.2 °F 29.75 in SW 7.0 mph 13.0 mph 72% 0.00 in
15:04 78.5 °F 68.7 °F 29.74 in WSW 7.0 mph 13.0 mph 72% 0.00 in
15:09 78.2 °F 68.4 °F 29.75 in SW 7.0 mph 15.0 mph 72% 0.00 in
15:14 79.4 °F 69.2 °F 29.75 in SW 6.0 mph 15.0 mph 71% 0.00 in
15:19 78.7 °F 68.5 °F 29.75 in SSW 4.0 mph 15.0 mph 71% 0.00 in
15:24 78.3 °F 68.9 °F 29.75 in SW 6.0 mph 15.0 mph 73% 0.00 in
15:29 78.2 °F 68.4 °F 29.75 in South 8.0 mph 11.0 mph 72% 0.00 in
15:34 76.9 °F 68.0 °F 29.75 in SW 9.0 mph 13.0 mph 74% 0.00 in
15:39 77.5 °F 68.6 °F 29.75 in SW 7.0 mph 10.0 mph 74% 0.00 in
15:44 78.1 °F 68.3 °F 29.74 in WSW 5.0 mph 15.0 mph 72% 0.00 in
15:49 77.9 °F 68.1 °F 29.75 in WNW 7.0 mph 15.0 mph 72% 0.00 in
15:54 77.4 °F 67.7 °F 29.75 in SSW 5.0 mph 16.0 mph 72% 0.00 in
15:59 77.0 °F 67.3 °F 29.75 in SW 8.0 mph 16.0 mph 72% 0.00 in
16:04 77.3 °F 67.6 °F 29.75 in SW 7.0 mph 15.0 mph 72% 0.00 in
16:09 77.1 °F 67.0 °F 29.75 in SW 7.0 mph 17.0 mph 71% 0.00 in
16:14 76.2 °F 66.9 °F 29.74 in SW 7.0 mph 17.0 mph 73% 0.00 in
16:19 77.6 °F 67.4 °F 29.74 in West 7.0 mph 14.0 mph 71% 0.00 in
16:24 78.2 °F 67.6 °F 29.73 in West 5.0 mph 13.0 mph 70% 0.00 in
16:29 78.3 °F 66.4 °F 29.73 in SW 3.0 mph 13.0 mph 67% 0.00 in
16:34 78.0 °F 67.0 °F 29.74 in WSW 7.0 mph 13.0 mph 69% 0.00 in
16:39 77.3 °F 66.7 °F 29.73 in SW 7.0 mph 17.0 mph 70% 0.00 in
16:44 77.4 °F 67.7 °F 29.73 in WNW 7.0 mph 14.0 mph 72% 0.00 in
16:49 77.7 °F 66.7 °F 29.73 in West 7.0 mph 15.0 mph 69% 0.00 in
16:54 77.3 °F 66.7 °F 29.72 in WSW 9.0 mph 16.0 mph 70% 0.00 in
16:59 76.9 °F 66.4 °F 29.73 in WSW 8.0 mph 19.0 mph 70% 0.00 in
17:04 76.7 °F 67.0 °F 29.73 in WSW 8.0 mph 19.0 mph 72% 0.00 in
17:09 76.8 °F 67.1 °F 29.73 in WSW 8.0 mph 16.0 mph 72% 0.00 in
17:14 76.7 °F 67.4 °F 29.73 in WSW 8.0 mph 14.0 mph 73% 0.00 in
17:19 76.2 °F 66.5 °F 29.73 in West 6.0 mph 17.0 mph 72% 0.00 in
17:24 76.6 °F 67.7 °F 29.73 in WNW 8.0 mph 14.0 mph 74% 0.00 in
17:29 76.3 °F 66.6 °F 29.73 in SW 7.0 mph 14.0 mph 72% 0.00 in
17:34 76.1 °F 66.4 °F 29.72 in SW 8.0 mph 15.0 mph 72% 0.00 in
17:39 76.4 °F 66.7 °F 29.72 in SW 8.0 mph 17.0 mph 72% 0.00 in
17:44 76.0 °F 66.7 °F 29.72 in West 10.0 mph 14.0 mph 73% 0.00 in
17:49 75.7 °F 66.4 °F 29.72 in SW 8.0 mph 15.0 mph 73% 0.00 in
17:54 75.6 °F 65.9 °F 29.72 in West 6.0 mph 14.0 mph 72% 0.00 in
17:59 75.8 °F 66.1 °F 29.72 in WSW 7.0 mph 14.0 mph 72% 0.00 in
18:04 76.0 °F 65.9 °F 29.72 in WSW 6.0 mph 16.0 mph 71% 0.00 in
18:09 76.3 °F 65.4 °F 29.72 in WSW 6.0 mph 20.0 mph 69% 0.00 in
18:14 75.9 °F 65.4 °F 29.72 in West 8.0 mph 13.0 mph 70% 0.00 in
18:19 75.8 °F 65.3 °F 29.72 in West 6.0 mph 14.0 mph 70% 0.00 in
18:24 75.6 °F 65.1 °F 29.72 in WNW 9.0 mph 14.0 mph 70% 0.00 in
18:29 75.5 °F 65.4 °F 29.72 in WSW 7.0 mph 14.0 mph 71% 0.00 in
18:34 75.4 °F 64.9 °F 29.72 in WSW 6.0 mph 13.0 mph 70% 0.00 in
18:39 75.0 °F 64.5 °F 29.72 in SW 7.0 mph 14.0 mph 70% 0.00 in
18:44 74.4 °F 64.4 °F 29.72 in SW 7.0 mph 14.0 mph 71% 0.00 in
18:49 74.5 °F 64.9 °F 29.72 in WSW 7.0 mph 12.0 mph 72% 0.00 in
18:54 74.4 °F 64.8 °F 29.73 in WSW 4.0 mph 11.0 mph 72% 0.00 in
18:59 74.7 °F 65.1 °F 29.72 in WSW 6.0 mph 13.0 mph 72% 0.00 in
19:04 74.2 °F 65.0 °F 29.72 in SSW 3.0 mph 12.0 mph 73% 0.00 in
19:09 74.0 °F 65.2 °F 29.72 in South 4.0 mph 13.0 mph 74% 0.00 in
19:14 73.9 °F 65.1 °F 29.72 in SW 4.0 mph 12.0 mph 74% 0.00 in
19:19 74.0 °F 65.2 °F 29.72 in SSW 7.0 mph 11.0 mph 74% 0.00 in
19:24 74.2 °F 65.0 °F 29.73 in SSW 3.0 mph 11.0 mph 73% 0.00 in
19:29 74.2 °F 64.6 °F 29.72 in SW 5.0 mph 10.0 mph 72% 0.00 in
19:34 73.9 °F 64.3 °F 29.72 in SW 6.0 mph 10.0 mph 72% 0.00 in
19:39 73.7 °F 64.1 °F 29.72 in SW 6.0 mph 15.0 mph 72% 0.00 in
19:44 73.7 °F 64.5 °F 29.72 in SW 5.0 mph 15.0 mph 73% 0.00 in
19:49 73.6 °F 64.4 °F 29.72 in SW 5.0 mph 13.0 mph 73% 0.00 in
19:54 73.5 °F 64.3 °F 29.72 in WSW 6.0 mph 13.0 mph 73% 0.00 in
19:59 73.4 °F 64.6 °F 29.72 in SW 5.0 mph 10.0 mph 74% 0.00 in
20:04 73.2 °F 64.8 °F 29.72 in SSE 3.0 mph 8.0 mph 75% 0.00 in
20:09 73.1 °F 65.1 °F 29.72 in SW 2.0 mph 13.0 mph 76% 0.00 in
20:14 73.0 °F 65.0 °F 29.72 in West 9.0 mph 12.0 mph 76% 0.00 in
20:19 73.0 °F 65.7 °F 29.72 in WSW 5.0 mph 12.0 mph 78% 0.00 in
20:24 72.9 °F 65.6 °F 29.72 in SW 3.0 mph 10.0 mph 78% 0.00 in
20:29 72.7 °F 65.8 °F 29.72 in SW 2.0 mph 12.0 mph 79% 0.00 in
20:34 72.6 °F 66.1 °F 29.72 in SW 5.0 mph 12.0 mph 80% 0.00 in
20:39 72.6 °F 66.4 °F 29.72 in SW 5.0 mph 11.0 mph 81% 0.00 in
20:44 72.4 °F 66.2 °F 29.71 in SW 4.0 mph 9.0 mph 81% 0.00 in
20:49 72.4 °F 66.6 °F 29.71 in SW 1.0 mph 11.0 mph 82% 0.00 in
20:54 72.4 °F 66.9 °F 29.71 in SW 7.0 mph 14.0 mph 83% 0.00 in
20:59 72.4 °F 66.9 °F 29.71 in SW 5.0 mph 14.0 mph 83% 0.00 in
21:04 72.3 °F 66.8 °F 29.71 in SW 5.0 mph 10.0 mph 83% 0.00 in
21:09 72.2 °F 66.7 °F 29.71 in SW 5.0 mph 12.0 mph 83% 0.00 in
21:14 72.2 °F 67.1 °F 29.71 in WSW 5.0 mph 12.0 mph 84% 0.00 in
21:19 72.2 °F 67.1 °F 29.71 in SW 4.0 mph 13.0 mph 84% 0.00 in
21:24 72.2 °F 67.1 °F 29.71 in WSW 4.0 mph 10.0 mph 84% 0.00 in
21:29 72.2 °F 67.1 °F 29.72 in SW 5.0 mph 10.0 mph 84% 0.00 in
21:34 72.2 °F 67.1 °F 29.73 in SSW 8.0 mph 10.0 mph 84% 0.00 in
21:39 72.1 °F 67.0 °F 29.73 in SW 4.0 mph 12.0 mph 84% 0.00 in
21:44 72.1 °F 67.0 °F 29.73 in WSW 5.0 mph 11.0 mph 84% 0.00 in
21:49 72.1 °F 67.0 °F 29.73 in SW 3.0 mph 10.0 mph 84% 0.00 in
21:54 72.1 °F 67.0 °F 29.73 in West 6.0 mph 9.0 mph 84% 0.00 in
21:59 72.1 °F 67.0 °F 29.72 in WSW 4.0 mph 9.0 mph 84% 0.00 in
22:04 72.1 °F 67.0 °F 29.72 in WSW 4.0 mph 7.0 mph 84% 0.00 in
22:09 72.1 °F 67.0 °F 29.72 in SW 4.0 mph 7.0 mph 84% 0.00 in
22:14 72.1 °F 67.3 °F 29.72 in SW 4.0 mph 9.0 mph 85% 0.00 in
22:19 72.1 °F 67.3 °F 29.72 in SW 4.0 mph 9.0 mph 85% 0.00 in
22:24 72.1 °F 67.3 °F 29.72 in SW 5.0 mph 10.0 mph 85% 0.00 in
22:29 72.1 °F 67.3 °F 29.72 in WSW 7.0 mph 9.0 mph 85% 0.00 in
22:34 72.1 °F 67.3 °F 29.71 in SW 5.0 mph 11.0 mph 85% 0.00 in
22:39 72.2 °F 67.8 °F 29.71 in WSW 7.0 mph 9.0 mph 86% 0.00 in
22:44 72.2 °F 67.8 °F 29.71 in SW 5.0 mph 10.0 mph 86% 0.00 in
22:49 72.3 °F 67.9 °F 29.72 in WSW 3.0 mph 13.0 mph 86% 0.00 in
22:54 72.3 °F 67.9 °F 29.72 in WNW 3.0 mph 13.0 mph 86% 0.00 in
22:59 72.4 °F 68.0 °F 29.72 in West 4.0 mph 13.0 mph 86% 0.00 in
23:04 72.3 °F 67.9 °F 29.71 in West 3.0 mph 7.0 mph 86% 0.00 in
23:09 72.4 °F 68.0 °F 29.71 in West 3.0 mph 7.0 mph 86% 0.00 in
23:14 72.4 °F 68.0 °F 29.71 in West 3.0 mph 7.0 mph 86% 0.00 in
23:19 72.4 °F 67.6 °F 29.71 in SW 3.0 mph 6.0 mph 85% 0.00 in
23:24 72.6 °F 67.8 °F 29.71 in SW 3.0 mph 6.0 mph 85% 0.00 in
23:29 72.4 °F 68.0 °F 29.70 in SW 2.0 mph 10.0 mph 86% 0.00 in
23:34 72.4 °F 68.0 °F 29.70 in SSW 1.0 mph 5.0 mph 86% 0.00 in
23:39 72.4 °F 68.0 °F 29.70 in SW 1.0 mph 5.0 mph 86% 0.00 in
23:44 72.3 °F 67.9 °F 29.70 in SW 2.0 mph 8.0 mph 86% 0.00 in
23:49 72.3 °F 67.9 °F 29.70 in SW 4.0 mph 7.0 mph 86% 0.00 in
23:54 72.3 °F 67.9 °F 29.70 in SW 4.0 mph 4.0 mph 86% 0.00 in
23:59 72.2 °F 67.8 °F 29.70 in SW 3.0 mph 9.0 mph 86% 0.00 in
Buffalo, New York, USA
Compliments of Weather Underground - 2.5 mb